Flag for France Weather past 2 weeks in Périgueux, France

Now
68 °F

Overcast.


Feels Like: 68 °F
Forecast: 44 / 74 °F
Wind: 12 mph from West

Location: Bergerac Airport

Current Time: Aug 23, 2014 at 3:37:20 PM

Latest Report: Aug 23, 2014 at 3:00 PM


Visibility: N/A

Pressure: 30.12 "Hg

Humidity: 64%

Dew point: 55 °F

Location of PérigueuxLocation

Historic Weather in Périgueux — Graph

°F

Périgueux temperature yesterday

Maximum temperature yesterday: 73 °F (at 4:00 PM)
Minimum temperature yesterday: 46 °F (at 6:30 AM)
Average temperature yesterday: 60 °F

Past Weeks' High & Low Weather Summary

 TemperatureHumidityPressure
High84 °F (Aug 8, 4:30 PM)100% (Aug 9, 6:00 AM)30.24 "Hg (Aug 9, 6:00 AM)
Low45 °F (Aug 21, 5:30 AM)41% (Aug 21, 4:30 PM)29.74 "Hg (Aug 13, 3:00 AM)
Average64 °F79%30.02 "Hg
* Reported Aug 8 2:00 PM — Aug 23 2:30 PM, Périgueux, Weather by CustomWeather, © 2014

Note: Actual official high and low records may vary slightly from our data, if they occured in-between our weather recording intervals... More about our weather records

Advertising

Périgueux weather history for previous 24 hours

 ConditionsComfort  
Time TempWeatherWind HumidityBarometerVisibility
2:30 PM
Aug 23
70 °FMostly cloudy.10 mph60%30.12 "HgN/A
2:00 PM72 °FBroken clouds.8 mph61%30.12 "HgN/A
1:30 PM70 °FBroken clouds.9 mph60%30.12 "HgN/A
1:00 PM70 °FPartly sunny.6 mph64%30.12 "HgN/A
12:30 PM68 °FBroken clouds.6 mph69%30.12 "HgN/A
12:00 PM68 °FMore clouds than sun.7 mph69%30.12 "HgN/A
11:30 AM66 °FOvercast.7 mph73%30.12 "HgN/A
11:00 AM64 °FMore clouds than sun.3 mph78%30.12 "HgN/A
10:30 AM63 °FBroken clouds.6 mph83%30.12 "HgN/A
10:00 AM61 °FMore clouds than sun.5 mph83%30.12 "HgN/A
9:30 AM59 °FBroken clouds.No wind88%30.12 "HgN/A
9:00 AM59 °FMostly cloudy.2 mph88%30.09 "HgN/A
8:30 AM57 °FClear.No wind94%30.09 "HgN/A
8:00 AM55 °FClear.No wind94%30.09 "HgN/A
7:30 AM55 °FClear.No wind94%30.09 "HgN/A
7:00 AM54 °FClear.1 mph100%30.09 "HgN/A
6:30 AM54 °FClear.3 mph100%30.09 "HgN/A
6:00 AM54 °FClear.No wind100%30.09 "HgN/A
5:30 AM54 °FClear.No wind100%30.09 "HgN/A
5:00 AM52 °FMostly cloudy.No wind100%30.09 "HgN/A
4:30 AM50 °FClear.No wind100%30.09 "HgN/A
4:00 AM52 °FPassing clouds.No wind94%30.09 "HgN/A
3:30 AM52 °FClear.No wind94%30.09 "HgN/A
2:30 AM55 °FClear.No wind94%30.09 "HgN/A
2:00 AM55 °FClear.2 mph88%30.09 "HgN/A
1:30 AM55 °FClear.2 mph88%30.09 "HgN/A
1:00 AM57 °FClear.6 mph82%30.09 "HgN/A
12:30 AM57 °FClear.6 mph82%30.09 "HgN/A
12:00 AM59 °FClear.7 mph77%30.09 "HgN/A
11:30 PM
Aug 22
61 °FClear.5 mph72%30.09 "HgN/A
11:00 PM61 °FClear.7 mph72%30.09 "HgN/A
10:30 PM63 °FClear.8 mph68%30.07 "HgN/A
10:00 PM64 °FClear.9 mph64%30.07 "HgN/A
9:30 PM64 °FClear.6 mph73%30.07 "HgN/A
9:00 PM64 °FClear.5 mph73%30.04 "HgN/A
8:30 PM66 °FClear.6 mph68%30.04 "HgN/A
8:00 PM66 °FClear.8 mph68%30.04 "HgN/A
7:30 PM68 °FClear.9 mph64%30.04 "HgN/A
7:00 PM70 °FClear.9 mph53%30.04 "HgN/A
6:30 PM72 °FClear.8 mph53%30.04 "HgN/A
6:00 PM72 °FClear.8 mph50%30.04 "HgN/A
5:30 PM72 °FClear.9 mph50%30.04 "HgN/A
5:00 PM73 °FClear.10 mph50%30.04 "HgN/A
4:30 PM72 °FClear.10 mph50%30.04 "HgN/A
4:00 PM73 °FClear.7 mph50%30.04 "HgN/A
3:30 PM72 °FClear.6 mph50%30.04 "HgN/A
3:00 PM72 °FClear.6 mph50%30.04 "HgN/A
Weather by CustomWeather, © 2014

See weather overviewHow to use our weather pages